Printer-friendly version

IAU Minor Planet Center

Minor Planet Center

MPEC 2003-B44 : 2003 BQ35

The following Minor Planet Electronic Circular may be linked-to from your own Web pages, but must not otherwise be redistributed electronically.


Read MPEC 2003-B43 Read MPEC 2003-B45


M.P.E.C. 2003-B44                                Issued 2003 Jan. 30, 16:12 UT

     The Minor Planet Electronic Circulars contain information on unusual
         minor planets and routine data on comets.  They are published
   on behalf of Commission 20 of the International Astronomical Union by the
          Minor Planet Center, Smithsonian Astrophysical Observatory,
                          Cambridge, MA 02138, U.S.A.

             Prepared using the Tamkin Foundation Computer Network

                              MPC@CFA.HARVARD.EDU
          URL http://cfa-www.harvard.edu/iau/mpc.html  ISSN 1523-6714

                                   2003 BQ35

Observations:
     K03B35Q* C2003 01 26.39709 10 05 20.84 +11 05 35.3          21.2 V      291
     K03B35Q  C2003 01 26.42069 10 05 18.79 +11 05 59.8          21.3 V      291
     K03B35Q  C2003 01 26.44455 10 05 16.79 +11 06 24.3          21.1 V      291
     K03B35Q  C2003 01 26.49357 10 05 12.57 +11 07 14.7          21.6 V      291
     K03B35Q  C2003 01 26.49741 10 05 12.18 +11 07 18.7          22.0 V      291
     K03B35Q  C2003 01 26.50174 10 05 11.86 +11 07 23.4          21.2 V      291
     K03B35Q  C2003 01 26.53363 10 05 09.12 +11 07 56.4          21.6 V      291
     K03B35Q  C2003 01 26.53776 10 05 08.79 +11 08 00.3          20.8 V      291
     K03B35Q  C2003 01 26.54164 10 05 08.44 +11 08 04.5          21.0 V      291
     K03B35Q  C2003 01 27.46711 10 03 52.01 +11 24 13.2          21.4 V      291
     K03B35Q  C2003 01 27.47143 10 03 51.54 +11 24 18.5          21.9 V      291
     K03B35Q  C2003 01 27.47539 10 03 51.26 +11 24 21.4          22.0 V      291
     K03B35Q  C2003 01 27.47944 10 03 50.88 +11 24 25.9          20.7 V      291
     K03B35Q  C2003 01 27.48369 10 03 50.52 +11 24 30.1          21.1 V      291
     K03B35Q  C2003 01 27.48746 10 03 50.19 +11 24 34.4          21.2 V      291
     K03B35Q  C2003 01 28.21308 10 02 49.72 +11 37 21.1          21.8 V      291
     K03B35Q  C2003 01 28.21724 10 02 49.35 +11 37 24.9          21.2 V      291
     K03B35Q  C2003 01 28.22157 10 02 48.98 +11 37 29.5          21.7 V      291
     K03B35Q  C2003 01 28.27170 10 02 44.47 +11 38 23.0          21.4 R      651
     K03B35Q  C2003 01 28.27606 10 02 43.96 +11 38 26.1          21.5 R      651
     K03B35Q  C2003 01 28.28127 10 02 43.61 +11 38 32.9          21.6 R      651
     K03B35Q  C2003 01 30.33135 09 59 43.17 +12 15 14.7          22.1 V      291
     K03B35Q  C2003 01 30.38277 09 59 38.23 +12 16 10.1          22.3 V      291

Observer details:
291 LPL/Spacewatch II.  Observers M. Block, J. V. Scotti.  1.8-m f/2.7
    reflector + CCD.
651 Grasslands Observatory, Tucson.  Observer J. E. McGaha.  0.62-m f/5.1
    Newtonian + CCD.

Orbital elements:
2003 BQ35
Epoch 2003 Jan. 21.0 TT = JDT 2452660.5                 MPC
M 113.20609              (2000.0)            P               Q
n   0.58003316     Peri.  219.67263     +0.99318977     +0.04650378
a   1.4239700      Node   137.28819     -0.01402230     +0.95793413
e   0.2547682      Incl.    9.06100     -0.11566092     +0.28319533
P   1.70           H   20.5           G   0.15
From 23 observations 2003 Jan. 26-30.

Ephemeris:
2003 BQ35                a,e,i = 1.42, 0.25, 9                   q = 1.0612
Date    TT    R. A. (2000) Decl.     Delta      r     Elong.  Phase     V
2003 01 31    09 58.71   +12 27.4    0.690    1.658   163.2     9.9    21.4
2003 02 10    09 42.51   +15 30.5    0.695    1.681   177.5     1.5    21.0
2003 02 20    09 26.34   +18 18.7    0.724    1.702   166.9     7.6    21.5
2003 03 02    09 12.91   +20 32.4    0.777    1.720   153.2    15.1    22.0

Brian G. Marsden             (C) Copyright 2003 MPC           M.P.E.C. 2003-B44

Read MPEC 2003-B43 Read MPEC 2003-B45


Our Web policy. Index to the CBAT/MPC/ICQ pages.


Valid HTML 4.01!